Location: College Park
(38.9810°N, 76.9370°W)
Time: 22:33:09
(UTC-05:00)

OTV 5 (USA 277) - Pass Details

Date: 09 January 2018
Orbit: 404 x 417 km, 43.0° (Epoch: 07 September)

Event Time Altitude Azimuth Distance (km) Brightness Sun altitude
Exits shadow 05:04:27 21° 80° (E) 963 ? -27.0°
Drops below altitude 10° 05:05:44 10° 89° (E) 1,454 ? -26.8°
Sets 05:07:52 0° 94° (E) 2,312 ? -26.4°
